User: anonymous   Login
Location: Unspecified
(0.0000°N, 0.0000°E)
Time: 10:46:00
(UTC+02:00)
Language:

Iridium 15 - Orbit

View from above orbital plane
View from above orbital plane
View from above satellite
View from above satellite

Ground track
Ground track

The orbit data is extracted from the following two-line orbital elements,

1 24869U 97034A   16269.57972123  .00000128  00000-0  38647-4 0  9995
2 24869  86.3957 132.7521 0002282  88.2940 271.8517 14.34222262  5986
Epoch (UTC): 25 September 2016 13:54:47
Eccentricity: 0.0002282
inclination: 86.3957°
perigee height: 776 km
apogee height: 779 km
right ascension of ascending node: 132.7521°
argument of perigee: 88.2940°
revolutions per day: 14.34222262
mean anomaly at epoch: 271.8517°
orbit number at epoch: 598

The dashed part of the orbit path shows where the satellite is in the earth's shadow,  

DLR